Location: La Vergne
(36.0160°N, 86.5820°W)
Time: 16:33:47
(UTC-05:00)

Milstar 3 Cent rocket - Pass Details

Date: 24 September 2017
Orbit: 713 x 5141 km, 28.3° (Epoch: 19 June)

Event Time Altitude Azimuth Distance (km) Brightness Sun altitude
Rises 19:31:22 0° 237° (WSW) 4,011 6.6 -11.2°
Reaches altitude 10° 19:34:57 10° 225° (SW) 2,637 5.3 -12.0°
Maximum altitude 19:39:36 26° 169° (S) 1,457 3.3 -12.9°
Enters shadow 19:42:11 17° 124° (SE) 1,778 3.4 -13.4°
